www.pogodaiklimat.ru

Погода и климат >> Архив погоды >> Норвегия >> Myken


ПОГОДА в Myken

  • Прогноз погоды в Myken
  • Монитор погоды в Myken
  • Климат города

АРХИВ ПОГОДЫ в Myken

Время (UTC), дата Ветер
(напр.,м/с)
 
Видим.   Явления Облачность Т
(С)
Тd
(С)
f
(%)
Тe
(С)
Тes
(С)
Комфортность P
(гПа)
Po
(гПа)
Тmin
(С)
Tmax
(С)
R
(мм)
R24
(мм)
S
(см)
01 14.10 Ю 14-18
{19}
н/о н/о +9.6 +6.5 81 +4 +4 996.5 994.5
02 14.10 Ю 13-18
{19}
н/о н/о +9.2 +7.7 90 +4 +4 996.8 994.8 0.3
03 14.10 Ю 13-17
{18}
н/о н/о +10.4 +7.8 84 +6 +6 996.0 994.0 0.5
06 14.10 Ю 13 15 км в посл. час ливневой дождь 9/3 300 м
[Cb calv Ac cuf]
+10.6 +8.5 87 +6 +6 996.0 994.0 +8.4 +11.3
07 14.10 ЮЗ 10-15
{22}
н/о н/о +8.8 +7.1 89 +4 +4 996.8 994.8 2
08 14.10 Ю 8 н/о н/о +10.8 +8.9 88 +7 +7 996.5 994.5 0.4
09 14.10 Ю 11-16
{18}
15 км в посл. час ливневой дождь 9/3 300 м
[Cb calv Ac cuf]
+11.6 +8.5 81 +8 +8 996.4 994.4
10 14.10 Ю 14-18
{20}
н/о н/о +10.3 +7.7 84 +5 +5 996.5 994.5 0.1
11 14.10 Ю 10-16
{17}
н/о н/о +11.4 +8.3 81 +7 +7 996.7 994.7 1
12 14.10 Ю 13-17
{22}
15 км в посл. час ливневой дождь 9/3 300 м
[Cb calv Ac cuf]
+11.7 +7.8 77 +7 +7 996.6 994.6
13 14.10 ЮЗ 9-15
{19}
н/о н/о +10.2 +8.3 88 +6 +6 997.0 995.0 0.4
14 14.10 Ю 11-16
{16}
н/о н/о +11.2 +8.3 82 +7 +7 996.8 994.8
15 14.10 ЮЗ 11-17
{17}
15 км в посл. час ливневой дождь 9/3 300 м
[Cb calv Ac cuf]
+10.9 +7.8 81 +7 +7 996.8 994.8
16 14.10 Ю 10-15
{18}
н/о н/о +11.0 +7.9 81 +7 +7 996.7 994.7
17 14.10 Ю 9-13
{17}
н/о н/о +11.0 +8.4 84 +7 +7 996.6 994.6 0.2
18 14.10 Ю 11
{19}
15 км в посл. час ливневой дождь 9/3 300 м
[Cb calv Ac cuf]
+10.4 +6.7 78 +6 +6 996.7 994.7 +11.7 4
19 14.10 ЮЗ 9-17
{18}
н/о н/о +10.2 +7.5 83 +6 +6 997.2 995.2 0.9
20 14.10 Ю 9-14
{17}
н/о н/о +10.1 +7.2 82 +6 +6 997.3 995.3 0.4
21 14.10 ЮЗ 8-16
{18}
15 км в посл. час ливневой дождь 9/3 300 м
[Cb calv Ac cuf]
+9.7 +7.7 87 +6 +6 997.6 995.6 1
22 14.10 ЮЗ 9-13
{14}
н/о н/о +9.8 +7.1 83 +5 +5 997.9 995.9 0.2
23 14.10 ЮЗ 9-14
{14}
н/о н/о +10.4 +7.3 81 +6 +6 998.5 996.5
00 15.10 ЮЗ 9-12
{18}
н/о н/о +9.4 +6.8 84 +5 +5 998.9 996.9 0.3
01 15.10 ЮЗ 9-13
{17}
н/о н/о +8.6 +6.4 86 +4 +4 999.4 997.4 2
02 15.10 ЮЗ 9-14
{15}
н/о н/о +9.7 +6.6 81 +5 +5 999.5 997.5 0.2
03 15.10 ЮЗ 6-9
{17}
н/о н/о +9.4 +6.0 79 +6 +6 1000.0 998.0
04 15.10 ЮЗ 10-15
{16}
н/о н/о +9.8 +6.5 80 +5 +5 1000.3 998.3 0.1
05 15.10 ЮЗ 10-14
{19}
н/о н/о +9.8 +6.5 80 +5 +5 1001.0 999.0 0.5
06 15.10 ЮЗ 11 15 км в посл. час ливневой дождь 9/3 300 м
[Cb calv Ac cuf]
+9.3 +6.7 84 +4 +4 1001.6 999.6 +8.5 +10.9
07 15.10 ЮЗ 11-15
{15}
н/о н/о +9.7 +6.6 81 +5 +5 1002.5 1000.5 0.1
08 15.10 ЮЗ 10-13
{16}
н/о н/о +9.8 +6.5 80 +5 +5 1003.3 1001.3
09 15.10 ЮЗ 7-11
{15}
н/о н/о +9.7 +7.3 85 +6 +6 1003.6 1001.6
10 15.10 ЮЗ 10-14
{14}
н/о н/о +10.4 +5.8 73 +6 +6 1003.9 1001.9
11 15.10 ЮЗ 10-14
{14}
н/о н/о +10.2 +6.6 78 +6 +6 1003.9 1001.9
12 15.10 ЮЗ 11-15
{16}
15 км в посл. час ливневой дождь 9/3 300 м
[Cb calv Ac cuf Ci fib]
+10.0 +5.6 74 +5 +5 1003.9 1001.9 0.2
13 15.10 ЮЗ 9-12
{14}
н/о н/о +9.4 +6.3 81 +5 +5 1003.9 1001.9 0.1
14 15.10 ЮЗ 8-13
{13}
н/о н/о +9.6 +4.4 70 +6 +6 1003.6 1001.6
15 15.10 ЮЗ 10-14
{14}
15 км в посл. час ливневой дождь 9/3 300 м
[Cb calv Ac cuf]
+9.4 +4.2 70 +5 +5 1003.4 1001.4 0.1
16 15.10 ЮЗ 6-9
{14}
н/о н/о +8.7 +5.8 82 +5 +5 1002.8 1000.8 0.2
17 15.10 Ю 9-12
{13}
н/о н/о +10.0 +5.6 74 +6 +6 1002.0 1000.0
18 15.10 Ю 8-11
{14}
15 км {ливн. осадки} 9/3 300 м
[Cb calv Ac cuf]
+8.8 +7.4 91 +4 +4 1001.3 999.3 +8.2 +10.7 0.4
19 15.10 Ю 12-15
{16}
н/о н/о +9.1 +6.7 85 +4 +4 999.7 997.7 1
20 15.10 ЮВ 8-10
{14}
н/о н/о +9.0 +6.5 84 +5 +5 998.7 996.7
21 15.10 В 6-7
{9}
10 км слабый дождь 10/3 300 м
[Frnb As op]
+9.4 +5.6 77 +6 +6 997.0 995.0
22 15.10 В 12-14
{14}
н/о н/о +9.5 +5.9 78 +4 +4 994.6 992.6 0.1
23 15.10 В 11-12
{14}
н/о н/о +8.9 +6.2 83 +4 +4 993.1 991.1 0.7
00 16.10 В 10-12
{16}
н/о н/о +8.6 +6.2 85 +4 +4 990.6 988.6 2
01 16.10 В 8-10
{12}
н/о н/о +8.3 +6.3 87 +4 +4 988.9 986.9 2
02 16.10 В 10-12
{13}
н/о н/о +7.8 +6.6 92 +2 +2 985.9 983.9 5
03 16.10 С 14-17
{17}
н/о н/о +7.6 +6.7 94 +1 +1 983.7 981.7 11
04 16.10 СЗ 16-20
{21}
н/о н/о +7.2 +5.4 88 0 0 986.5 984.5 5
05 16.10 З 19-23
{24}
н/о н/о +8.1 +6.1 87 +1 +1 990.7 988.7 1
06 16.10 З 18 10 км слабый дождь 10/3 300 м
[Frnb As op]
+8.4 +3.9 73 +2 +2 993.3 991.3 +6.8 +9.9 0.2
07 16.10 З 17-20
{21}
н/о н/о +9.0 +4.8 75 +3 +3 995.2 993.2 0.6
08 16.10 З 18-21
{23}
н/о н/о +7.8 +4.9 82 +1 +1 996.6 994.6 0.2
09 16.10 З 18-20
{23}
15 км в посл. час ливневой дождь 8/3 300 м
[Cb calv Ac cuf Ci fib]
+9.0 +4.6 74 +3 +3 997.8 995.8 0.4
10 16.10 З 18-22
{22}
н/о н/о +9.2 +4.8 74 +3 +3 998.6 996.6
11 16.10 З 18-21
{23}
н/о н/о +9.2 +4.4 72 +3 +3 999.1 997.1
12 16.10 З 17-21
{23}
15 км в посл. час ливневой дождь 9/3 300 м
[Cb calv Ac cuf]
+9.1 +3.9 70 +3 +3 999.5 997.5
13 16.10 З 18-23
{25}
н/о н/о +9.0 +4.8 75 +3 +3 999.8 997.8
14 16.10 З 18-23
{23}
н/о н/о +9.2 +3.8 69 +3 +3 1000.2 998.2
15 16.10 З 18-22
{23}
15 км 9/3 300 м
[Cb calv Ac cuf Cc]
+9.2 +4.0 70 +3 +3 1000.4 998.4
16 16.10 З 18-24
{26}
н/о н/о +8.7 +5.3 79 +2 +2 1000.6 998.6 0.2
17 16.10 З 18-23
{24}
н/о н/о +9.2 +5.4 77 +3 +3 1000.7 998.7
18 16.10 З 17
{26}
15 км в посл. час ливневой дождь 6/1 300 м
[Cb cap Ac cuf]
+9.1 +5.3 77 +3 +3 1001.6 999.6 +9.7 1
19 16.10 З 16-19
{23}
н/о н/о +9.0 +5.9 81 +3 +3 1001.9 999.9 0.2
20 16.10 З 15-18
{21}
н/о н/о +9.1 +5.7 79 +3 +3 1002.9 1000.9 0.6
21 16.10 З 15-20
{20}
15 км в посл. час ливневой дождь 9/3 300 м
[Cb calv Ac cuf]
+8.3 +5.6 83 +2 +2 1002.8 1000.8 0.3
22 16.10 З 14-18
{20}
н/о н/о +8.9 +6.4 84 +3 +3 1003.2 1001.2 0.1
23 16.10 З 14-17
{18}
н/о н/о +8.1 +5.6 84 +2 +2 1003.6 1001.5 0.7
00 17.10 ЮЗ 13-17
{23}
15 км в посл. час ливневой дождь 9/3 300 м
[Cb calv Ac cuf]
+8.8 +6.1 83 +3 +3 1003.6 1001.6 0.6
01 17.10 ЮЗ 12-14
{18}
н/о н/о +8.6 +5.9 83 +3 +3 1003.6 1001.5 0.3
02 17.10 З 14-16
{17}
н/о н/о +8.9 +5.1 77 +3 +3 1003.2 1001.2 0.2
03 17.10 З 13-16
{18}
н/о н/о +8.4 +6.5 88 +3 +3 1003.1 1001.0
04 17.10 ЮЗ 12-15
{16}
н/о н/о +8.6 +5.2 79 +3 +3 1002.9 1000.9 0.2
05 17.10 ЮЗ 10-14
{15}
н/о н/о +8.5 +5.1 79 +3 +3 1002.6 1000.6
06 17.10 З 10-14
{18}
н/о н/о +8.3 +5.2 81 +3 +3 1002.3 1000.3 +7.8 +9.4
07 17.10 ЮЗ 10-13
{13}
н/о н/о +8.6 +4.6 76 +4 +4 1002.1 1000.1
08 17.10 ЮЗ 8-11
{13}
н/о н/о +8.6 +5.4 80 +4 +4 1002.0 1000.0
09 17.10 ЮЗ 8-11
{12}
15 км 9/3 300 м
[Cb calv Ac cuf]
+8.4 +5.7 83 +4 +4 1001.7 999.7
10 17.10 ЮЗ 8-12
{13}
н/о н/о +8.3 +5.8 84 +4 +4 1001.3 999.3
11 17.10 З 10-12
{12}
н/о н/о +8.9 +5.3 78 +4 +4 1000.9 998.9
12 17.10 ЮЗ 8-12
{13}
15 км в посл. час ливневой дождь 9/3 300 м
[Cb calv Ac cuf]
+8.7 +5.3 79 +4 +4 1000.6 998.6 0.4
13 17.10 ЮЗ 7-12
{13}
н/о н/о +8.3 +5.6 83 +4 +4 1000.4 998.4
14 17.10 ЮЗ 9-11
{12}
н/о н/о +8.7 +4.3 74 +4 +4 999.8 997.8
15 17.10 ЮЗ 9-11
{13}
15 км в посл. час ливневой дождь 6/3 300 м
[Cb calv Ac cuf Ci fib]
+8.4 +4.4 76 +4 +4 999.4 997.4
16 17.10 ЮЗ 8-11
{12}
н/о н/о +8.5 +4.7 77 +4 +4 999.0 997.0
17 17.10 ЮЗ 9-12
{12}
н/о н/о +8.6 +4.4 75 +4 +4 998.7 996.7
18 17.10 ЮЗ 9-11
{13}
15 км в посл. час ливневой дождь 8/3 300 м
[Cb calv Ac cuf]
+8.5 +5.1 79 +4 +4 998.3 996.3 +7.7 +9.2 0.2
19 17.10 ЮЗ 9-12
{14}
н/о н/о +8.4 +5.0 79 +4 +4 998.1 996.1 0.2
20 17.10 З 8-13
{13}
н/о н/о +8.7 +5.8 82 +4 +4 997.8 995.8 0.1
21 17.10 З 9-12
{14}
15 км в посл. час ливневой дождь 9/3 300 м
[Cb calv Ac cuf]
+8.3 +5.4 82 +3 +3 997.8 995.8
22 17.10 З 8-13
{15}
н/о н/о +8.3 +5.1 80 +4 +4 998.0 996.0 0.6
23 17.10 СЗ 8-10
{14}
н/о н/о +7.8 +5.3 84 +3 +3 998.4 996.4 0.2
00 18.10 СЗ 9-11
{15}
н/о н/о +8.4 +5.3 81 +4 +4 998.8 996.8 0.2
01 18.10 СЗ 8-10
{14}
н/о н/о +7.9 +5.2 83 +3 +3 999.3 997.3 0.7
02 18.10 СЗ 11-13
{15}
н/о н/о +8.3 +5.4 82 +3 +3 999.6 997.6 0.3
03 18.10 СЗ 11-13
{14}
н/о н/о +8.6 +4.8 77 +3 +3 1000.2 998.2
04 18.10 СЗ 12 н/о н/о +8.6 +4.6 76 +3 +3 1000.9 998.9
05 18.10 СЗ 11-14
{15}
н/о н/о +8.9 +4.7 75 +4 +4 1001.4 999.4
06 18.10 СЗ 10-13
{16}
н/о н/о +8.9 +5.7 80 +4 +4 1002.4 1000.4 +7.3 +9.1
07 18.10 СЗ 11-17
{17}
н/о н/о +8.3 +5.1 80 +3 +3 1003.0 1001.0 0.2
08 18.10 СЗ 9-11
{15}
н/о н/о +8.7 +4.7 76 +4 +4 1004.6 1002.5 0.3
09 18.10 СЗ 7-9
{13}
15 км в посл. час ливневой дождь 9/3 300 м
[Cb calv Ac cuf]
+8.2 +5.5 83 +4 +4 1005.5 1003.4 0.1
10 18.10 СЗ 7-9
{16}
н/о н/о +8.1 +4.3 77 +4 +4 1006.4 1004.3 0.8
11 18.10 СЗ 10-11
{12}
н/о н/о +8.8 +4.8 76 +4 +4 1007.1 1005.0
12 18.10 С 9-11
{17}
15 км в посл. час ливневой дождь 8/3 300 м
[Cb calv Ac cuf Ci fib]
+9.3 +4.9 74 +5 +5 1008.1 1006.0
13 18.10 С 11-14
{14}
н/о н/о +9.6 +4.4 70 +5 +5 1009.2 1007.1
14 18.10 С 12-15
{15}
н/о н/о +9.4 +4.0 69 +4 +4 1010.1 1008.0
15 18.10 С 12-15
{15}
15 км 6/1 300 м
[Cb calv Ac cuf]
+9.2 +3.4 67 +4 +4 1010.9 1008.8
16 18.10 С 12-15
{15}
н/о н/о +8.8 +2.6 65 +4 +4 1011.7 1009.6
17 18.10 С 10-13
{14}
н/о н/о +8.8 +3.7 70 +4 +4 1012.8 1010.7
18 18.10 С 10
{15}
20 км 4/1 300 м
[Cu med, cong Ac As]
+8.9 +3.1 67 +4 +4 1013.5 1011.4 +9.8 1
19 18.10 С 10-12
{13}
н/о н/о +9.0 +2.8 65 +4 +4 1014.2 1012.1
20 18.10 С 9-12
{13}
н/о н/о +8.8 +2.2 63 +4 +4 1014.8 1012.7
21 18.10 С 9-12
{12}
30 км 4/1 300 м
[Cu med, cong Ac As]
+8.8 +1.7 61 +4 +4 1015.4 1013.3
22 18.10 С 8-11
{11}
н/о н/о +8.7 +1.6 61 +5 +5 1016.0 1013.9
23 18.10 С 7-9
{10}
н/о н/о +8.7 +2.5 65 +5 +5 1016.5 1014.4
00 19.10 СЗ 8-9
{13}
30 км 4/1 300 м
[Cu med, cong Ac As]
+8.6 +1.8 62 +4 +4 1016.8 1014.7
01 19.10 С 6-8
{10}
н/о н/о +8.5 +2.1 64 +5 +5 1017.3 1015.2
02 19.10 С 6-8
{8}
н/о н/о +8.5 +1.9 63 +5 +5 1017.6 1015.5
03 19.10 С 4-6
{8}
н/о н/о +8.5 +1.7 62 +6 +6 1017.9 1015.8
04 19.10 С 5-7
{7}
н/о н/о +8.3 +2.3 66 +5 +5 1018.0 1015.9
05 19.10 СЗ 4-5
{6}
н/о н/о +8.2 +1.4 62 +5 +5 1018.4 1016.3
06 19.10 С 6 40 км 4/1 300 м
[Cb calv Ac As]
+8.1 +2.8 69 +4 +4 1018.5 1016.4 +8.1 +9.0
07 19.10 С 3-4
{7}
н/о н/о +8.2 +2.3 66 +6 +6 1018.9 1016.8
08 19.10 С 4-7
{11}
н/о н/о +8.1 +3.6 73 +5 +5 1019.4 1017.3 0.1
09 19.10 В 3-4
{6}
20 км в посл. час ливневой дождь 6/3 300 м
[Cb calv Ac cuf]
+7.8 +3.3 73 +5 +5 1020.1 1018.0
10 19.10 Ю 2-3
{3}
н/о н/о +8.6 +3.5 70 +7 +7 1020.1 1018.0
11 19.10 ЮВ 2-3
{3}
н/о н/о +8.6 +3.3 69 +7 +7 1020.3 1018.2
12 19.10 ЮЗ 2-3
{11}
20 км {ливн. осадки} 8/3 300 м
[Cb calv Ac cuf]
+9.0 +3.2 67 +8 +8 1020.4 1018.3
13 19.10 СЗ 4-6
{6}
н/о н/о +8.4 +3.9 73 +5 +5 1020.4 1018.3
14 19.10 З 4-5
{7}
н/о н/о +7.9 +3.8 75 +5 +5 1020.5 1018.4
15 19.10 СЗ 3-4
{5}
15 км 6/1 300 м
[Cb calv Ac As Ci fib]
+7.8 +3.7 75 +5 +5 1020.6 1018.5
16 19.10 З 2-3
{11}
н/о н/о +7.2 +3.3 76 +5 +5 1020.8 1018.7 0.4
17 19.10 СЗ 3-5
{5}
н/о н/о +7.6 +3.7 76 +5 +5 1020.8 1018.7
18 19.10 С 4-5
{11}
15 км в посл. час ливневой дождь 6/3 300 м
[Cb calv Ac cuf]
+7.9 +2.6 69 +5 +5 1021.1 1019.0 +7.0 +9.5
19 19.10 С 4-6
{6}
н/о н/о +7.9 +3.0 71 +5 +5 1021.3 1019.2
20 19.10 СВ 5-6
{7}
н/о н/о +7.7 +3.2 73 +4 +4 1021.5 1019.4
21 19.10 В 4-6
{7}
20 км {ливн. осадки} 6/1 300 м
[Cb calv Ac cuf]
+7.2 +4.2 81 +4 +4 1021.8 1019.7
22 19.10 В 3-4
{6}
н/о н/о +7.3 +3.7 78 +5 +5 1021.9 1019.8
23 19.10 В 2-3
{5}
н/о н/о +7.0 +3.6 79 +5 +5 1021.9 1019.8
00 20.10 СВ 4-5
{7}
20 км {ливн. осадки} 6/1 300 м
[Cb calv Ac cuf]
+7.4 +3.1 74 +4 +4 1021.8 1019.7
01 20.10 СВ 4-6
{6}
н/о н/о +7.5 +3.6 76 +4 +4 1021.9 1019.8
02 20.10 В 7-9
{11}
н/о н/о +7.0 +3.6 79 +2 +2 1022.0 1019.9
03 20.10 В 5-7
{9}
н/о н/о +7.1 +1.8 69 +3 +3 1021.8 1019.7
04 20.10 В 6-7
{9}
н/о н/о +7.0 +2.1 71 +3 +3 1021.8 1019.7
05 20.10 В 7-9
{9}
н/о н/о +7.0 +1.3 67 +2 +2 1021.9 1019.8
06 20.10 СВ 7-9
{11}
н/о н/о +6.8 +1.1 67 +2 +2 1021.8 1019.7 +6.6 +8.1
07 20.10 В 7-9
{9}
н/о н/о +7.1 +1.0 65 +3 +3 1022.0 1019.9
08 20.10 В 8-9
{10}
н/о н/о +6.9 +1.2 67 +2 +2 1022.0 1019.9
09 20.10 В 7-9
{9}
н/о н/о +7.1 +0.6 63 +3 +3 1022.2 1020.1
10 20.10 В 5-7
{8}
н/о н/о +7.3 -0.6 57 +4 +4 1022.3 1020.2
11 20.10 В 5-7
{8}
н/о н/о +7.2 -1.0 56 +4 +4 1022.3 1020.2
12 20.10 В 4-5
{10}
н/о н/о +7.4 -1.5 53 +4 +4 1022.3 1020.2
13 20.10 В 5-7
{7}
н/о н/о +7.6 -2.1 50 +4 +4 1022.3 1020.2
14 20.10 ЮВ 8-9
{9}
н/о н/о +7.7 -2.3 49 +3 +3 1022.1 1020.0
15 20.10 В 8-10
{10}
н/о н/о +7.3 -1.1 55 +3 +3 1021.8 1019.7
16 20.10 В 6-7
{9}
н/о н/о +7.2 -1.2 55 +3 +3 1021.7 1019.6
17 20.10 В 8-10
{10}
н/о н/о +7.1 -1.0 56 +2 +2 1021.8 1019.7
18 20.10 В 9-10
{12}
н/о н/о +7.1 -1.5 54 +2 +2 1021.6 1019.5 +6.8 +7.8
19 20.10 ЮВ 8-10
{11}
н/о н/о +7.2 -2.0 52 +3 +3 1021.8 1019.7
20 20.10 В 7-8
{9}
н/о н/о +6.9 -1.5 55 +3 +3 1021.6 1019.5
21 20.10 ЮВ 7-10
{10}
н/о н/о +7.2 -1.7 53 +3 +3 1021.6 1019.5
22 20.10 ЮВ 8-11
{11}
н/о н/о +7.4 -1.3 54 +3 +3 1021.5 1019.4
23 20.10 В 7-8
{11}
н/о н/о +7.1 -1.0 56 +3 +3 1021.2 1019.1
00 21.10 В 6-8
{11}
н/о н/о +7.0 -2.4 51 +3 +3 1021.0 1018.9

 

Местоположение метеостанции Myken (Норвегия): широта 66.77 долгота 12.48 высота над уровнем моря 17 м.

В архиве по умолчанию представлена погода в Myken за последнюю неделю. Архивные данные за месяц целиком и за предыдущие месяцы, начиная с января 2011 года, Вы можете получить, выбрав интересующий диапазон дат из раскрывающегося списка и нажав кнопку "Ввод!".

Внимание! Время в таблицах - всемирное. Для получения местного времени необходимо прибавить поправку, которая в Myken равна 1 ч.

Смотрите также архив погоды в соседних городах и на ближайших метеорологических станциях:

Погода в Solvaer III (Норвегия) (45 км)
Погода в Reipa (Норвегия) (53 км)
Погода в Rost Flyplass (Норвегия) (85 км)
Погода в Skamdal (Норвегия) (86 км)
Погода в Seljelia (Норвегия) (86 км)
Погода в Sandnessjoen Lufthavn (Норвегия) (90 км)
Погода в Mo i Rana Lufthavn (Норвегия) (93 км)
Погода в Helligvaer II (Норвегия) (93 км)
Погода в Vaeroy Heliport (Норвегия) (98 км)
Погода в Bodo VI (Норвегия) (99 км)

Пояснения к столбцам:

Ветер - указаны скорость ветра в м/с - средняя за 10 мин, порывы в срок и между сроками (в фигурных скобках) и направление, откуда дует ветер: С - северный, СВ - северо-восточный, В - восточный, ЮВ - юго-восточный, Ю - южный, ЮЗ - юго-западный, З - западный, СЗ - северо-западный.
Видимость - горизонтальная дальность видимости в метрах или километрах. При видимости от 1 до 10 км при отсутствии осадков обычно наблюдается дымка, при ухудшении видимости до 1 км и менее - туман. В сухую погоду видимость может ухудшаться дымом, пылью или мглою.
Явления - указаны атмосферные явления, наблюдавшиеся в срок или в последний час перед сроком; фигурными скобками обозначены явления, наблюдавшиеся между сроками (за 1-3 часа до срока); квадратными скобками обозначены град или гололедные отложения с указанием их диаметра в мм.
Облачность - указаны через наклонную черту общая и нижняя облачность в баллах и высота нижней границы облаков в метрах; квадратными скобками обозначены формы облаков: Ci - перистые, Cs - перисто-слоистые, Cc - перисто-кучевые, Ac - высококучевые, As - высокослоистые, Sc - слоисто-кучевые, Ns - слоисто-дождевые, Cu - кучевые, Cb - кучево-дождевые. Подробнее классификацию облаков см. в Атласе облаков (PDF).
T - Температура воздуха - температура, измеренная на высоте 2 м над землей.
Td - Температура точки росы - температура, при понижении до которой содержащийся в воздухе водяной пар достигнет насыщения.
f - Относительная влажность воздуха - влажноcть воздуха, измеренная на высоте 2 м над землей.
Te - Эффективная температура - температура, которую ощущает одетый по сезону человек в тени. Характеристика душности погоды. При расчете учитывается влияние влажности воздуха и скорости ветра на теплоощущения человека.
Tes - Эффективная температура на солнце - температура, которую ощущает человек, с поправкой на солнечный нагрев. Характеристика знойности погоды. Зависит от высоты солнца над горизонтом, облачности и скорости ветра. Ночью, в пасмурную погоду, а также при ветре 12 м/с и более поправка равна нулю.
P - Атмосферное давление - приведенное к уровню моря атмосферное давление.
Po - Атмосферное давление - измеренное на уровне метеостанции атмосферное давление.
Tmin - Минимальная температура - минимум температуры воздуха на высоте 2 м над землей.
Tmax - Максимальная температура - максимум температуры воздуха на высоте 2 м над землей.
R - Количество осадков - Количество выпавших осадков за период времени, мм. При наведении курсора мыши на число - период времени, за который выпало указанное количество осадков.
R24 - Количество осадков - Количество выпавших осадков за 24 часа, мм.
S - Снежный покров - Высота снежного покрова, см. При наведении курсора мыши на число - состояние снежного покрова и степень покрытия местности в баллах.